Location: Newark
(34.4697°S, 57.8467°W)
Time: 08:22:16
(UTC+00:00)

N. Korean satellite - Pass Details

Date: 23 July 2019
Orbit: 457 x 507 km, 97.2° (Epoch: 18 August)

Event Time Altitude Azimuth Distance (km) Brightness Sun altitude
Rises 09:51:39 0° 344° (NNW) 2,590 10.3 -12.4°
Reaches altitude 10° 09:54:04 10° 328° (NNW) 1,710 9.2 -12.0°
Maximum altitude 09:56:59 22° 276° (W) 1,142 7.9 -11.4°
Enters shadow 09:58:58 15° 235° (SW) 1,436 8.3 -11.0°
